Regional Weather Roundup
Issued by NWS

Home | Current Version | Previous Version | Text Only | Print | Product List | Glossary Off
Versions: 1 2 3 4 5 6 7 8 9 10 11 12 13 14 15 16 17 18 19 20 21 22 23 24 25 26 27 28 29 30 31 32 33 34 35 36 37 38 39 40 41 42 43 44 45 46 47 48 49 50

000
ASUS45 KBOU 231807
RWRCO

WEATHER ROUNDUP FOR COLORADO
NATIONAL WEATHER SERVICE DENVER/BOULDER CO
1200 PM MDT WED JUL 23 2014

NOTE: "FAIR" INDICATES FEW OR NO CLOUDS BELOW 12000 FEET WITH NO
SIGNIFICANT WEATHER AND/OR OBSTRUCTIONS TO VISIBILITY.

COZ001>005-013-030-031-231900-
...NORTHWEST COLORADO...

CITY           SKY/WX    TMP DP  RH WIND       PRES   REMARKS
CRAIG          MOSUNNY   90  38  16 W10G18    30.34F
HAYDEN         MOSUNNY   84  39  20 NE7       30.38F
MEEKER         MOSUNNY   90  39  16 S10       30.36F
MOUNT WERNER   NOT AVBL
STEAMBOAT SPGS MOSUNNY   84  39  19 SW3       30.41F
WALDEN         SUNNY     79  36  21 S3        30.51F
$$

COZ006>008-011-231900-
...WEST CENTRAL VALLEYS...

CITY           SKY/WX    TMP DP  RH WIND       PRES   REMARKS
GRAND JUNCTION MOSUNNY   94  39  14 SE9       30.22F
MONTROSE       MOSUNNY   93  43  17 N5        30.32F
EAGLE          MOSUNNY   84  41  21 NW6       30.39F
RIFLE          SUNNY     91  39  16 NW7       30.29F
DELTA            N/A     96  37  13 CALM      30.28
NUCLA          MOSUNNY   91  37  15 NW10G16   30.37F
$$

COZ017>023-064>068-231900-
...SOUTHWEST COLORADO...

CITY           SKY/WX    TMP DP  RH WIND       PRES   REMARKS
DURANGO        MOSUNNY   86  36  16 E9        30.43F
CORTEZ         SUNNY     92  43  18 S12       30.36S
PAGOSA SPRINGS MOSUNNY   82  32  16 S8        30.52F
TELLURIDE      NOT AVBL
WOLF CREEK PAS NOT AVBL
$$

COZ009-010-012-014-032>034-037-058>063-231900-
...CENTRAL COLORADO...

CITY           SKY/WX    TMP DP  RH WIND       PRES   REMARKS
ASPEN          SUNNY     87  39  18 N7        30.45F
BUENA VISTA    SUNNY     79  37  22 SE7G16    30.53F
COPPER MTN     SUNNY     70  30  23 SW6G17    30.88S
BERTHOUD PASS  CLOUDY    61  46  59 N3        30.94S
COTTONWOOD PAS SUNNY     75  34  22 SE7       30.70F
GUNNISON       SUNNY     81  39  22 N3        30.52F
KREMMLING      SUNNY     82  32  16 S6        30.46F
LEADVILLE      SUNNY     72  31  22 CALM      30.68F
MONARCH PASS   MOSUNNY   66  36  32 E6G17     30.99S
SALIDA         SUNNY    N/A N/A N/A E7        30.56F
SUNLIGHT       SUNNY     77  41  27 CALM      30.78F
WILKERSON PASS SUNNY     70  32  24 SW6       30.86S
$$

COZ069>075-231900-
...SAN LUIS VALLEY/SANGRE DE CRISTO MOUNTAINS...

CITY           SKY/WX    TMP DP  RH WIND       PRES   REMARKS
ALAMOSA        SUNNY     80  48  32 SW9       30.51F
LA VETA PASS   SUNNY     73  41  31 NE8G16    30.74F
SAGUACHE       SUNNY     81  34  18 S7        30.54F
$$

COZ035-036-038>040-231900-
...NORTHERN COLORADO FRONT RANGE...

CITY           SKY/WX    TMP DP  RH WIND       PRES   REMARKS
DENVER INTL AP MOSUNNY   81  59  47 VRB5      30.35F
DMNS CITY PARK   N/A     78  61  56 N6G13     30.35F
AURORA         MOSUNNY   79  63  56 N9        30.38F
FRONT RANGE AP MOSUNNY   84  61  45 E6        30.36
ERIE MUNI ARPT MOSUNNY   76  62  62 N5        30.35F
BOULDER MUN AP MOSUNNY   77  61  57 NW7       30.36F
CENTENNIAL     MOSUNNY   80  62  54 N13       30.38S
BROOMFIELD     NOT AVBL
FORT COLLINS   MOSUNNY   75  63  64 NE3       30.36F
LONGMONT       SUNNY     80  62  53 E5        30.36F
$$

COZ041-046-047-076>085-087-088-231900-
...PIKES PEAK/PALMER DIVIDE AND SOUTHERN FOOTHILLS...

CITY           SKY/WX    TMP DP  RH WIND       PRES   REMARKS
COLO. SPRINGS  MOSUNNY   85  54  34 SE17G23   30.42S
A. F. ACADEMY  SUNNY     84  50  30 SE16      30.43S
ELLICOTT       SUNNY     85  53  33 S16       30.41S
FALCON         SUNNY     82  54  37 S13G20    30.49S
FORT CARSON    SUNNY     85  54  33 SE13      30.39F
LIMON          SUNNY     89  55  31 SE17G26   30.36F
MONUMENT HILL  SUNNY     82  46  28 SE17G24   30.46F
TRINIDAD       SUNNY     89  41  18 E12G17    30.38S
$$

COZ042>045-048>051-090-091-231900-
...NORTHEAST COLORADO...

CITY           SKY/WX    TMP DP  RH WIND       PRES   REMARKS
GREELEY ARPT   MOSUNNY   79  63  57 SE6       30.34S
AKRON          CLOUDY    68  63  84 SE25G32   30.35S
BURLINGTON     CLOUDY    69  63  81 E17G28    30.36F
WRAY             N/A     85  60  41 SE21G30   30.31F
STERLING       CLOUDY    75  68  78 SE14G24   30.32S
HOLYOKE        MOSUNNY   84  63  48 S14G20    30.30F
FORT MORGAN    PTSUNNY   79  64  60 SE18      30.32F
$$

COZ086-089-092>099-231900-
...SOUTHEAST COLORADO...

CITY           SKY/WX    TMP DP  RH WIND       PRES   REMARKS
PUEBLO         SUNNY     87  57  35 S9        30.30S
LA JUNTA       SUNNY     90  58  33 VRB6      30.28S
LAMAR          SUNNY     94  64  37 NE17G24   30.23S
SPRINGFIELD      N/A     91  55  29 S10       30.29S
$$


USA.gov is the U.S. government's official web portal to all federal, state and local government web resources and services.